Location: Gallura
(41.0000°N, 9.2167°E)
Time: 15:30:21
(UTC+00:00)

Daily predictions for brighter satellites

Satellite Brightness Start Highest point End
(mag) Time Altitude Azimuth Time Altitude Azimuth Time Altitude Azimuth
Meteor 2-19 Rocket 4.4 16:51:24 10° N 16:57:29 82° E 17:03:33 10° S
CORIOLIS 4.1 16:52:26 10° SSE 16:57:46 81° ENE 17:03:09 10° NNW
GEOS 3 Rocket 4.5 16:53:16 10° ESE 16:57:58 33° NE 17:02:44 10° NNW
Cosmos 332 Rocket 3.9 16:54:40 10° SSW 16:59:34 87° WNW 17:04:31 10° NNE
SL-27 R/B 2.5 17:02:47 10° NNW 17:06:22 88° WSW 17:09:51 10° SSE
CZ-4B R/B 3.9 17:01:54 10° S 17:07:29 63° WSW 17:13:03 10° NNW
Aureole 1 Rocket 2.2 17:04:47 10° N 17:07:45 52° ENE 17:10:42 10° SSE
Meteor 1-16 Rocket 4.2 17:03:07 10° S 17:08:50 71° E 17:14:24 10° NNE
Feng Yun 1-1 Rocket 4.4 17:05:34 10° SSE 17:11:18 64° ENE 17:17:10 10° N
Cosmos 1602 Rocket 3.6 17:07:22 10° N 17:11:51 68° E 17:16:17 10° SSE
Cosmos 1626 Rocket 3.6 17:07:39 10° N 17:12:07 88° W 17:16:32 10° S
ADEOS Rocket 4.2 17:06:16 10° N 17:12:09 49° WNW 17:18:39 10° SW
BREEZE-M R/B 4.0 17:09:07 10° W 17:12:18 39° NNW 17:18:09 10° ENE
Cosmos 2228 3.9 17:09:07 10° SSE 17:12:41 27° E 17:16:16 10° NNE
USA 229 DEB 3.9 17:07:37 10° NNW 17:15:00 75° NE 17:22:43 10° SE
USA 229 3.9 17:07:44 10° NNW 17:15:06 75° NE 17:22:48 10° SE
Cosmos 1939 Rocket 3.1 17:11:41 10° SSE 17:15:33 45° ENE 17:19:22 10° N
Cosmos 1356 Rocket 3.4 17:12:12 10° S 17:16:24 85° E 17:20:42 10° N
Cosmos 1420 Rocket 4.4 17:11:32 10° SSW 17:16:48 71° WNW 17:22:04 10° NNE
USA 281 4.3 17:13:52 10° S 17:20:10 49° WSW 17:26:31 10° NW
ERS-2 3.5 17:16:56 10° N 17:20:24 42° WNW 17:23:51 10° SW
Hubble Space Telescope 3.1 17:18:25 10° SSW 17:20:39 14° S 17:22:54 10° SE
Cosmos 1954 Rocket 4.4 17:17:03 10° NNW 17:22:13 70° WSW 17:27:23 10° S
Cosmos 1908 3.1 17:18:55 10° S 17:22:43 80° E 17:26:34 10° N
Cosmos 1703 3.2 17:19:48 10° N 17:23:42 65° E 17:27:37 10° SSE
CZ-4 R/B 2.0 17:21:25 10° SE 17:24:56 31° ENE 17:28:25 10° N
CZ-4B R/B 2.8 17:22:29 10° N 17:25:36 39° WNW 17:28:37 10° SW
CZ-2D R/B 3.6 17:22:09 10° SE 17:25:46 42° ENE 17:29:24 10° N
Cosmos 1943 Rocket 4.4 17:21:25 10° WSW 17:25:48 23° NW 17:30:12 10° N
Okean O Rocket 3.2 17:21:46 10° SSW 17:25:52 39° W 17:29:59 10° NNW
IRS-1C Rocket 4.1 17:21:25 10° SSE 17:26:38 68° ENE 17:31:53 10° N
NOSS 3-1 (A) 4.1 17:20:24 10° NNW 17:28:06 74° NE 17:36:54 10° SE
Cosmos 1655 Rocket 4.2 17:23:15 10° N 17:29:40 80° W 17:36:03 10° S
Cosmos 1110 Rocket 4.5 17:24:53 10° S 17:29:44 39° ESE 17:34:35 10° NE
Cosmos 2227 Rocket 4.0 17:28:22 10° NNE 17:30:10 11° NE 17:31:21 11° ENE
Milstar 3 4.2 17:26:14 10° SSW 17:31:15 22° SSE 17:36:17 11° ESE
Cosmos 1741 Rocket 4.1 17:28:32 10° N 17:33:42 54° ENE 17:38:48 10° SE
ATLAS 5 CENTAUR R/B 3.7 17:32:36 10° W 17:35:48 21° NW 17:39:20 10° N
COSMO-SKYMED 1 2.6 17:35:12 10° N 17:39:34 83° WNW 17:43:54 10° SSW
Lacrosse 5 3.6 17:35:52 10° W 17:40:12 28° NNW 17:44:33 10° NNE
H-2A R/B 2.8 17:37:56 10° SE 17:42:40 33° ENE 17:47:29 10° N
USA 276 2.2 17:40:41 10° NW 17:43:52 59° NNE 17:45:14 29° E
USA 215 4.2 17:40:04 16° ENE 17:44:19 33° NNE 17:49:59 10° NW
ARGOS 4.1 17:42:15 16° ESE 17:45:21 27° ENE 17:49:50 10° N
Okean-O 2.6 17:42:02 10° SSE 17:46:25 65° ENE 17:50:48 10° N
SeaSat 1 2.9 17:45:48 17° ESE 17:49:11 39° ENE 17:53:46 10° NNW
OAO 3 Rocket 4.1 17:46:09 10° SW 17:50:25 34° S 17:52:44 22° ESE
Cosmos 1328 4.0 17:47:07 10° NNW 17:51:04 74° W 17:54:59 10° S
CSL-04 Rocket 4.1 17:46:08 10° SE 17:51:19 42° ENE 17:56:31 10° N
COSMOS 2487 2.3 17:49:01 10° N 17:52:25 61° ENE 17:54:56 17° SSE
Cosmos 1850 Rocket 4.0 17:48:09 10° NNW 17:53:28 85° ENE 17:58:48 10° SSE
Aureole 3 3.6 17:50:49 10° SSE 17:54:18 33° E 17:54:18 33° E
Cosmos 1452 Rocket 4.5 17:52:15 10° SW 17:57:20 49° WNW 18:02:28 10° N
YAOGAN 1 2.5 17:53:22 10° SSE 17:57:38 66° ENE 18:01:56 10° N
Cosmos 1300 2.6 17:53:55 10° S 17:57:40 64° E 18:01:27 10° NNE
Cosmos 1825 Rocket 3.5 17:55:54 10° N 18:00:23 89° E 18:04:49 10° S
Nadezhda 2 Rocket 4.5 17:56:30 10° N 18:02:51 65° E 18:09:13 10° SSE
Cosmos 1400 Rocket 3.2 18:00:53 10° SSE 18:04:46 40° E 18:05:29 37° ENE
CZ-2C R/B 3.2 17:59:46 10° SSE 18:05:34 75° ENE 18:11:21 10° N
Meteor 2-21 Rocket 4.4 18:03:24 10° N 18:09:37 90° ENE 18:15:46 10° S
SJ-11-01 4.2 18:06:46 13° SSE 18:10:48 58° ENE 18:15:24 10° N
Cosmos 1244 Rocket 4.4 18:05:30 10° N 18:11:39 67° E 18:17:50 10° SSE
Cosmos 2297 Rocket 3.2 18:07:26 10° N 18:12:08 26° NE 18:12:08 26° NE
Cosmos 1726 Rocket 3.6 18:11:22 10° SSW 18:15:40 76° W 18:20:02 10° N
Meteor 2-8 Rocket 4.3 18:09:57 10° S 18:15:58 66° E 18:22:01 10° NNE
In-Cosmos 22 Rocket 4.2 18:13:08 10° N 18:18:18 48° ENE 18:19:42 39° ESE
Helios 1A Rocket 4.3 18:18:27 10° S 18:22:20 39° W 18:26:14 10° NNW
CSL-04 Debris 4.0 18:17:20 10° SSE 18:22:44 82° ENE 18:28:12 10° NNW
Ariane Rocket 4.3 18:26:42 24° NNE 18:26:42 24° NNE 18:29:17 10° N
Cosmos 2219 3.8 18:25:53 10° N 18:30:55 38° NE 18:30:55 38° NE
Timation 2 Rocket 4.1 18:25:29 10° NNW 18:32:00 62° ENE 18:34:14 42° ESE
SL-4 R/B 3.7 18:29:52 10° WNW 18:32:40 21° NNW 18:33:10 20° N
Delta 2 Rocket 4.5 18:29:47 10° WSW 18:35:09 48° S 18:35:58 45° SSE
GEOS 3 Rocket 4.5 18:31:04 12° SSE 18:35:47 49° WSW 18:41:00 10° NW
Cosmos 44 3.1 18:31:56 10° SSW 18:35:52 66° SSE 18:35:52 66° SSE
Gbstr 26 Del rocket 4.4 18:30:54 10° WNW 18:37:47 73° SW 18:41:38 33° SE
S3M 3.8 18:38:02 10° S 18:44:03 66° E 18:50:07 10° NNE
SL-08 ROCKET BODY 4.3 18:38:41 10° N 18:44:45 71° E 18:46:19 50° SSE
Cosmos 2058 Rocket 3.6 18:41:35 10° SSW 18:45:57 58° W 18:50:23 10° N
CRYOSAT 2 4.4 18:45:08 10° N 18:50:00 78° W 18:54:51 10° S
Meteor 2-15 4.3 18:46:30 10° S 18:52:38 84° E 18:58:48 10° N
CZ-4 R/B 4.1 18:57:13 10° SW 19:00:00 18° W 19:02:47 10° NW
MOS 1 Rocket 4.5 18:56:16 10° N 19:00:30 40° WNW 19:04:56 10° SW
Cosmos 2227 Rocket 3.2 19:09:43 10° NNW 19:13:11 37° N 19:13:11 37° N
H-2A R/B 3.7 19:17:19 10° SSW 19:22:02 32° W 19:26:51 10° NNW
Lacrosse 5 4.3 19:22:17 10° NW 19:24:44 13° N 19:24:49 13° N
ARGOS 4.3 19:23:47 33° SW 19:25:23 40° W 19:30:30 10° NNW
SeaSat 1 4.2 19:25:37 25° SW 19:26:45 28° WSW 19:30:57 10° NW
USA 215 3.3 19:27:26 74° NNW 19:27:26 74° NNW 19:33:21 10° NW
ATLAS 2AS CENTAUR R/B 4.5 19:29:57 10° NNW 19:34:18 21° NNE 19:34:18 21° NNE
Cosmos 2297 Rocket 3.9 19:51:00 10° NW 19:53:58 29° NW 19:53:58 29° NW
